Weather History for EGPH - July, 2014

Change the Weather History Date:

Friday, July 25, 2014

  Actual Average Record
Temperature  
Mean Temperature 65 °F -  
Max Temperature 75 °F 65 °F 80 °F (2006)
Min Temperature 55 °F 50 °F 46 °F (1996)
Growing Degree Days 15 (Base 50)    
Moisture  
Dew Point 57 °F    
Average Humidity 84    
Maximum Humidity 100    
Minimum Humidity 50    
Precipitation  
Precipitation 0.00 in 0.08 in - ()
Sea Level Pressure  
Sea Level Pressure 30.14 in    
Wind  
Wind Speed 4 mph ()    
Max Wind Speed 12 mph    
Max Gust Speed -    
Visibility 3.1 miles    
Events Fog    
Averages and records for this station are not official NWS values.
T = Trace of Precipitation, MM = Missing Value Source: Averaged Metar Reports

Daily Weather History Graph

Daily Weather History Graph

Search for Another Location

Airport or City:

Trip Planner

Search our weather history database for the weather conditions in past years. The results will help you decide how hot, cold, wet, or windy it might be!

Date:

Astronomy

Jul. 25, 2014 Rise Set
Actual Time 5:04 AM BST 9:34 PM BST
Civil Twilight 4:13 AM BST 10:25 PM BST
Nautical Twilight 2:49 AM BST 11:46 PM BST
Astronomical Twilight Sun does not set Sun does not set
Moon 3:58 AM BST (7/25) 8:10 PM BST (7/25)
Length of Visible Light 18h 11m
Length of Day
16h 29m
Waning Crescent, 2% of the Moon is Illuminated
Jul 25
Waning Crescent
Jul 26
New
Aug 4
First Quarter
Aug 10
Full
Aug 17
Last Quarter

Hourly Weather History & Observations

Time (BST) Temp. Dew Point Humidity Pressure Visibility Wind Dir Wind Speed Gust Speed Precip Events Conditions
12:20 AM 57.2 °F 55.4 °F 94% 30.18 in 0.2 mi ENE 4.6 mph - N/A Fog Fog
12:50 AM 55.4 °F 55.4 °F 100% 30.18 in 0.2 mi East 4.6 mph - N/A Fog Fog
1:20 AM 55.4 °F 55.4 °F 100% 30.18 in 0.1 mi ENE 3.5 mph - N/A Fog Patches of Fog
1:50 AM 55.4 °F 55.4 °F 100% 30.18 in 0.2 mi Calm Calm - N/A Fog Fog
2:20 AM 55.4 °F 55.4 °F 100% 30.18 in 0.4 mi ENE 3.5 mph - N/A Fog Fog
2:50 AM 55.4 °F 55.4 °F 100% 30.18 in 0.2 mi East 3.5 mph - N/A Fog Fog
3:20 AM 55.4 °F 55.4 °F 100% 30.18 in 0.3 mi East 4.6 mph - N/A Fog Fog
3:50 AM 55.4 °F 55.4 °F 100% 30.18 in 0.4 mi Variable 3.5 mph - N/A Fog Fog
4:20 AM 55.4 °F 55.4 °F 100% 30.18 in 0.9 mi Variable 2.3 mph - N/A   Overcast
4:50 AM 55.4 °F 55.4 °F 100% 30.18 in 0.6 mi East 2.3 mph - N/A Fog Fog
5:20 AM 55.4 °F 55.4 °F 100% 30.18 in 1.1 mi NE 2.3 mph - N/A   Overcast
5:50 AM 55.4 °F 55.4 °F 100% 30.18 in 0.6 mi Calm Calm - N/A Fog Fog
6:20 AM 55.4 °F 55.4 °F 100% 30.18 in 0.6 mi Calm Calm - N/A Fog Fog
6:50 AM 55.4 °F 55.4 °F 100% 30.18 in 0.6 mi Calm Calm - N/A Fog Fog
7:20 AM 57.2 °F 55.4 °F 94% 30.18 in 0.8 mi Calm Calm - N/A   Overcast
7:50 AM 57.2 °F 55.4 °F 94% 30.18 in 0.7 mi ENE 2.3 mph - N/A   Overcast
8:20 AM 57.2 °F 57.2 °F 100% 30.18 in 1.5 mi Variable 2.3 mph - N/A   Mostly Cloudy
8:50 AM 60.8 °F 57.2 °F 88% 30.18 in 3.7 mi Variable 2.3 mph - N/A   Partly Cloudy
9:20 AM 62.6 °F 57.2 °F 82% 30.18 in - Variable 2.3 mph - N/A   Clear
9:50 AM 66.2 °F 57.2 °F 73% 30.15 in - East 4.6 mph - N/A   Clear
10:20 AM 68.0 °F 57.2 °F 68% 30.15 in - NNE 5.8 mph - N/A   Clear
10:50 AM 69.8 °F 57.2 °F 64% 30.15 in - ENE 6.9 mph - N/A   Clear
11:20 AM 69.8 °F 57.2 °F 64% 30.15 in 6.2 mi ENE 6.9 mph - N/A   Unknown
11:50 AM 69.8 °F 57.2 °F 64% 30.15 in - NE 6.9 mph - N/A   Clear
12:20 PM 71.6 °F 57.2 °F 60% 30.15 in - NE 8.1 mph - N/A   Clear
12:50 PM 71.6 °F 57.2 °F 60% 30.12 in 6.2 mi NE 6.9 mph - N/A   Partly Cloudy
1:20 PM 73.4 °F 55.4 °F 53% 30.12 in 6.2 mi NE 8.1 mph - N/A   Partly Cloudy
1:50 PM 75.2 °F 55.4 °F 50% 30.12 in 6.2 mi NE 9.2 mph - N/A   Partly Cloudy
2:20 PM 73.4 °F 57.2 °F 57% 30.12 in 6.2 mi NE 10.4 mph - N/A   Unknown
2:50 PM 73.4 °F 57.2 °F 57% 30.12 in 6.2 mi NE 9.2 mph - N/A   Partly Cloudy
3:20 PM 73.4 °F 57.2 °F 57% 30.12 in - NE 10.4 mph - N/A   Clear
3:50 PM 73.4 °F 57.2 °F 57% 30.12 in 6.2 mi NE 11.5 mph - N/A   Partly Cloudy
4:20 PM 71.6 °F 59.0 °F 64% 30.09 in - ENE 10.4 mph - N/A   Clear
4:50 PM 71.6 °F 59.0 °F 64% 30.09 in - ENE 10.4 mph - N/A   Clear
5:20 PM 69.8 °F 59.0 °F 68% 30.09 in 6.2 mi ENE 10.4 mph - N/A   Partly Cloudy
5:50 PM 66.2 °F 60.8 °F 83% 30.09 in 6.2 mi NE 8.1 mph - N/A   Partly Cloudy
6:20 PM 66.2 °F 59.0 °F 78% 30.09 in 6.2 mi NE 8.1 mph - N/A Fog Partly Cloudy
6:50 PM 64.4 °F 59.0 °F 83% 30.09 in 6.2 mi NE 9.2 mph - N/A   Partly Cloudy
7:20 PM 64.4 °F 59.0 °F 83% 30.09 in 6.2 mi NE 10.4 mph - N/A   Partly Cloudy
7:50 PM 62.6 °F 59.0 °F 88% 30.09 in 6.2 mi NE 8.1 mph - N/A   Partly Cloudy
8:20 PM 62.6 °F 59.0 °F 88% 30.09 in - NE 9.2 mph - N/A   Clear
8:50 PM 60.8 °F 59.0 °F 94% 30.09 in - NE 8.1 mph - N/A   Clear
9:20 PM 60.8 °F 59.0 °F 94% 30.09 in - NNE 4.6 mph - N/A   Clear
9:50 PM 59.0 °F 57.2 °F 94% 30.09 in - ENE 5.8 mph - N/A   Clear
10:20 PM 57.2 °F 57.2 °F 100% 30.09 in 6.2 mi ENE 5.8 mph - N/A   Unknown
10:50 PM 57.2 °F 57.2 °F 100% 30.09 in - NE 5.8 mph - N/A   Clear
11:20 PM 57.2 °F 57.2 °F 100% 30.09 in - NE 4.6 mph - N/A   Clear
11:50 PM 57.2 °F 55.4 °F 94% 30.09 in - East 3.5 mph - N/A   Clear